Location: Newark
(7.0858°N, 171.3717°E)
Time: 16:49:01
(UTC+00:00)

Altair - Pass Details

Date: 01 December 2020
Orbit: 1501 x 1682 km, 47.2° (Epoch: 20 January)

Event Time Altitude Azimuth Distance (km) Brightness Sun altitude
Rises 07:23:08 0° 250° (WSW) 4,832 12.0 -16.4°
Reaches altitude 10° 07:27:01 10° 262° (W) 3,815 10.8 -17.3°
Maximum altitude 07:34:37 26° 315° (NW) 2,705 9.0 -19.1°
Drops below altitude 10° 07:42:03 10° 9° (N) 3,700 9.2 -20.8°
Enters shadow 07:43:43 - 15° (NNE) 4,108 9.4 -21.2°
